Change the Weather History Date:

Monday, March 11, 2013

  Actual Average Record
Temperature  
Mean Temperature 20 °F -  
Max Temperature 26 °F 35 °F 55 °F (2012)
Min Temperature 14 °F 21 °F -7 °F (1998)
Degree Days  
Heating Degree Days 45    
Moisture  
Dew Point 19 °F    
Average Humidity 86    
Maximum Humidity 93    
Minimum Humidity 74    
Precipitation  
Precipitation 0.00 in - - ()
Sea Level Pressure  
Sea Level Pressure 29.83 in    
Wind  
Wind Speed 18 mph (NW)    
Max Wind Speed 26 mph    
Max Gust Speed 29 mph    
Visibility 9 miles    
Events Rain , Snow    
Averages and records for this station are not official NWS values.
T = Trace of Precipitation, MM = Missing Value Source: NWS Daily Summary

Daily Weather History Graph

Daily Weather History Graph

Search for Another Location

Airport or City:

Trip Planner

Search our weather history database for the weather conditions in past years. The results will help you decide how hot, cold, wet, or windy it might be!

Date:

Astronomy

Mar. 11, 2013 Rise Set
Actual Time 7:39 AM CDT 7:23 PM CDT
Civil Twilight 7:11 AM CDT 7:51 PM CDT
Nautical Twilight 6:38 AM CDT 8:23 PM CDT
Astronomical Twilight 6:05 AM CDT 8:56 PM CDT
Moon 7:13 AM CDT (3/11) 7:37 PM CDT (3/11)
Length of Visible Light 12h 39m
Length of Day
11h 43m
Waning Crescent, 0% of the Moon is Illuminated
Mar 11
Waning Crescent
Mar 11
New
Mar 19
First Quarter
Mar 27
Full
Apr 2
Last Quarter

Hourly Weather History & Observations

Time (CDT) Temp. Windchill Dew Point Humidity Pressure Visibility Wind Dir Wind Speed Gust Speed Precip Events Conditions
12:35 AM 23.0 °F 6.6 °F 21.2 °F 93% 29.84 in 1.0 mi North 25.3 mph - N/A Snow Light Snow
12:55 AM 23.0 °F 7.6 °F 21.2 °F 93% 29.84 in 1.5 mi NNW 21.9 mph 28.8 mph N/A Snow Light Snow
1:15 AM 23.0 °F 6.3 °F 21.2 °F 93% 29.83 in 4.0 mi North 26.5 mph - N/A Snow Light Snow
1:35 AM 23.0 °F 7.2 °F 21.2 °F 93% 29.83 in 4.0 mi NNW 23.0 mph - N/A Snow Light Snow
1:55 AM 23.0 °F 8.0 °F 21.2 °F 93% 29.83 in 1.8 mi NNW 20.7 mph - N/A Snow Light Snow
2:15 AM 23.0 °F 9.2 °F 21.2 °F 93% 29.84 in 1.2 mi NNW 17.3 mph 25.3 mph N/A Snow Light Snow
2:35 AM 23.0 °F 8.7 °F 21.2 °F 93% 29.83 in 3.0 mi NNW 18.4 mph 25.3 mph N/A Snow Light Snow
2:55 AM 23.0 °F 8.3 °F 21.2 °F 93% 29.82 in 6.0 mi North 19.6 mph - N/A Snow Light Snow
3:15 AM 23.0 °F 8.3 °F 21.2 °F 93% 29.82 in 7.0 mi NNW 19.6 mph - N/A Snow Light Snow
3:35 AM 23.0 °F 8.0 °F 21.2 °F 93% 29.81 in 8.0 mi North 20.7 mph 27.6 mph N/A Snow Light Snow
3:55 AM 23.0 °F 8.3 °F 21.2 °F 93% 29.80 in 9.0 mi NNW 19.6 mph - N/A Snow Light Snow
4:15 AM 23.0 °F 8.7 °F 21.2 °F 93% 29.80 in 9.0 mi NNW 18.4 mph - N/A Snow Light Snow
4:35 AM 23.0 °F 8.3 °F 21.2 °F 93% 29.80 in 10.0 mi NNW 19.6 mph - N/A Snow Light Snow
4:55 AM 23.0 °F 8.7 °F 21.2 °F 93% 29.80 in 10.0 mi NNW 18.4 mph - N/A Snow Light Snow
5:15 AM 23.0 °F 8.3 °F 21.2 °F 93% 29.80 in 10.0 mi NNW 19.6 mph 25.3 mph N/A Snow Light Snow
5:35 AM 23.0 °F 8.3 °F 21.2 °F 93% 29.80 in 10.0 mi NNW 19.6 mph 25.3 mph N/A Snow Light Snow
5:55 AM 23.0 °F 9.2 °F 19.4 °F 86% 29.80 in 10.0 mi NNW 17.3 mph - N/A Snow Light Snow
6:15 AM 23.0 °F 9.2 °F 19.4 °F 86% 29.80 in 10.0 mi NNW 17.3 mph - N/A Snow Light Snow
6:35 AM 23.0 °F 9.2 °F 19.4 °F 86% 29.81 in 10.0 mi NNW 17.3 mph 24.2 mph N/A Snow Light Snow
6:55 AM 21.2 °F 6.4 °F 19.4 °F 93% 29.81 in 10.0 mi NW 18.4 mph - N/A Snow Light Snow
7:15 AM 21.2 °F 6.0 °F 19.4 °F 93% 29.81 in 10.0 mi NNW 19.6 mph - N/A Snow Light Snow
7:35 AM 21.2 °F 6.8 °F 19.4 °F 93% 29.81 in 10.0 mi NNW 17.3 mph - N/A Snow Light Snow
7:55 AM 21.2 °F 8.3 °F 19.4 °F 93% 29.81 in 10.0 mi NW 13.8 mph 20.7 mph N/A Snow Light Snow
8:15 AM 21.2 °F 6.8 °F 19.4 °F 93% 29.81 in 10.0 mi NW 17.3 mph - N/A Snow Light Snow
8:35 AM 21.2 °F 6.8 °F 19.4 °F 93% 29.82 in 10.0 mi NW 17.3 mph - N/A Snow Light Snow
8:55 AM 21.2 °F 7.8 °F 19.4 °F 93% 29.82 in 8.0 mi NW 15.0 mph - N/A Snow Light Snow
9:15 AM 21.2 °F 7.8 °F 19.4 °F 93% 29.82 in 10.0 mi NW 15.0 mph 21.9 mph N/A Snow Light Snow
9:35 AM 21.2 °F 7.3 °F 17.6 °F 86% 29.82 in 10.0 mi NW 16.1 mph - N/A Snow Light Snow
9:55 AM 21.2 °F 7.8 °F 17.6 °F 86% 29.83 in 8.0 mi NW 15.0 mph - N/A Snow Light Snow
10:15 AM 21.2 °F 5.6 °F 17.6 °F 86% 29.83 in 8.0 mi NW 20.7 mph - N/A Snow Light Snow
10:35 AM 21.2 °F 6.8 °F 17.6 °F 86% 29.83 in 9.0 mi NW 17.3 mph - N/A Snow Light Snow
10:55 AM 21.2 °F 6.0 °F 17.6 °F 86% 29.83 in 9.0 mi NW 19.6 mph - N/A Snow Light Snow
11:15 AM 21.2 °F 6.0 °F 17.6 °F 86% 29.83 in 9.0 mi NW 19.6 mph - N/A   Overcast
11:35 AM 23.0 °F 8.3 °F 17.6 °F 80% 29.82 in 9.0 mi NW 19.6 mph - N/A   Overcast
11:55 AM 23.0 °F 9.6 °F 17.6 °F 80% 29.83 in 9.0 mi NW 16.1 mph 23.0 mph N/A Rain Light Freezing Rain
12:15 PM 23.0 °F 8.7 °F 17.6 °F 80% 29.82 in 9.0 mi NW 18.4 mph - N/A Rain Light Freezing Rain
12:35 PM 23.0 °F 10.1 °F 17.6 °F 80% 29.82 in 10.0 mi NW 15.0 mph - N/A   Light Freezing Rain
12:55 PM 23.0 °F 9.6 °F 17.6 °F 80% 29.82 in 10.0 mi WNW 16.1 mph - N/A   Light Freezing Rain
1:15 PM 23.0 °F 9.2 °F 17.6 °F 80% 29.82 in 10.0 mi NW 17.3 mph - N/A   Light Freezing Rain
1:35 PM 23.0 °F 10.6 °F 17.6 °F 80% 29.81 in 10.0 mi NW 13.8 mph - N/A   Light Freezing Rain
1:55 PM 23.0 °F 9.2 °F 17.6 °F 80% 29.81 in 9.0 mi NW 17.3 mph - N/A   Light Freezing Rain
2:15 PM 23.0 °F 9.6 °F 17.6 °F 80% 29.80 in 10.0 mi NW 16.1 mph - N/A   Light Freezing Rain
2:35 PM 23.0 °F 10.6 °F 17.6 °F 80% 29.79 in 10.0 mi NW 13.8 mph - N/A   Light Freezing Rain
2:55 PM 24.8 °F 12.9 °F 17.6 °F 74% 29.79 in 10.0 mi NW 13.8 mph - N/A   Light Freezing Rain
3:15 PM 24.8 °F 11.9 °F 19.4 °F 80% 29.80 in 10.0 mi NW 16.1 mph - N/A   Light Freezing Rain
3:35 PM 24.8 °F 11.9 °F 19.4 °F 80% 29.81 in 10.0 mi NW 16.1 mph - N/A   Light Freezing Rain
3:55 PM 26.6 °F 15.2 °F 19.4 °F 74% 29.81 in 10.0 mi WNW 13.8 mph - N/A   Light Freezing Rain
4:15 PM 26.6 °F 14.7 °F 19.4 °F 74% 29.81 in 10.0 mi NW 15.0 mph - N/A   Mostly Cloudy
4:35 PM 26.6 °F 16.2 °F 19.4 °F 74% 29.82 in 10.0 mi WNW 11.5 mph - N/A   Overcast
4:55 PM 26.6 °F 14.7 °F 21.2 °F 80% 29.82 in 10.0 mi WNW 15.0 mph - N/A   Overcast
5:15 PM 26.6 °F 15.2 °F 21.2 °F 80% 29.82 in 10.0 mi WNW 13.8 mph - N/A   Overcast
5:35 PM 26.6 °F 15.7 °F 23.0 °F 86% 29.82 in 10.0 mi WNW 12.7 mph - N/A   Overcast
6:15 PM 26.6 °F 16.2 °F 21.2 °F 80% 29.82 in 10.0 mi WNW 11.5 mph - N/A   Scattered Clouds
6:35 PM 24.8 °F 14.0 °F 21.2 °F 86% 29.84 in 10.0 mi West 11.5 mph - N/A   Mostly Cloudy
6:55 PM 24.8 °F 12.9 °F 21.2 °F 86% 29.84 in 10.0 mi West 13.8 mph - N/A   Overcast
7:15 PM 24.8 °F 14.0 °F 21.2 °F 86% 29.84 in 10.0 mi West 11.5 mph - N/A   Overcast
7:35 PM 26.6 °F 16.2 °F 21.2 °F 80% 29.84 in 10.0 mi West 11.5 mph - N/A   Overcast
7:55 PM 23.0 °F 11.7 °F 19.4 °F 86% 29.85 in 10.0 mi West 11.5 mph - N/A   Scattered Clouds
8:15 PM 23.0 °F 11.7 °F 19.4 °F 86% 29.87 in 10.0 mi West 11.5 mph - N/A   Clear
8:35 PM 23.0 °F 11.7 °F 19.4 °F 86% 29.88 in 10.0 mi West 11.5 mph - N/A   Clear
8:55 PM 21.2 °F 10.1 °F 17.6 °F 86% 29.88 in 10.0 mi West 10.4 mph - N/A   Clear
9:15 PM 21.2 °F 10.9 °F 15.8 °F 80% 29.88 in 10.0 mi West 9.2 mph - N/A   Clear
9:35 PM 21.2 °F 10.1 °F 15.8 °F 80% 29.88 in 10.0 mi West 10.4 mph - N/A   Clear
9:55 PM 19.4 °F 7.9 °F 15.8 °F 86% 29.89 in 10.0 mi West 10.4 mph - N/A   Clear
10:15 PM 19.4 °F 7.2 °F 15.8 °F 86% 29.89 in 10.0 mi West 11.5 mph - N/A   Clear
10:35 PM 17.6 °F 5.0 °F 14.0 °F 86% 29.90 in 10.0 mi West 11.5 mph - N/A   Clear
11:15 PM 15.8 °F 2.7 °F 14.0 °F 93% 29.91 in 10.0 mi West 11.5 mph - N/A   Clear
11:35 PM 14.0 °F 0.5 °F 12.2 °F 93% 29.91 in 10.0 mi West 11.5 mph - N/A   Clear
11:55 PM 15.8 °F 2.1 °F 12.2 °F 86% 29.91 in 10.0 mi West 12.7 mph - N/A   Clear